Location: Peebles
(55.6412°N, 3.1714°W)
Time: 15:12:26
(UTC+01:00)

NOSS 3-3 (C) - Pass Details

Date: 26 September 2021
Orbit: 801 x 1411 km, 63.4° (Epoch: 05 October)

Event Time Altitude Azimuth Distance (km) Brightness Sun altitude
Rises 20:12:35 0° 307° (NW) 3,826 8.5 -10.9°
Reaches altitude 10° 20:15:04 10° 308° (NW) 2,952 7.7 -11.2°
Maximum altitude 20:22:14 87° 37° (NE) 1,226 4.5 -12.2°
Enters shadow 20:29:33 14° 129° (SE) 3,054 6.0 -13.2°
